Theta_e
273 272 272 272 272 271 271 270 270 269 269 268 267 267 267 267 266 266 265 265 265 264 264 263 263 263 262 260 261 260 259 259 258 259 258 258 257 257 256 256 255 256
272 272 272 271 271 271 271 270 270 269 269 269 268 268 267 267 266 266 265 265 265 264 264 263 263 263 262 260 260 260 260 259 258 260 257 258 258 258 257 257 256 256
272 271 271 270 270 270 270 270 270 270 269 269 268 268 267 266 266 266 265 265 264 264 264 263 263 262 262 261 261 260 259 260 258 258 258 258 259 258 258 258 258 257
271 271 271 270 270 269 269 269 269 269 269 268 268 267 267 266 266 265 265 265 264 264 264 263 263 262 261 260 260 259 259 259 259 258 258 258 258 258 257 257 257 257
270 270 270 270 269 269 269 268 269 269 268 268 267 267 266 266 265 265 264 264 264 263 263 263 263 262 262 261 260 258 258 258 258 258 257 257 257 257 256 256 255 255
269 269 269 269 269 268 268 268 269 268 268 267 267 267 266 266 265 264 264 263 263 263 263 263 262 262 261 260 259 258 258 257 257 257 256 255 254 255 254 254 253 253
268 268 268 268 268 268 268 267 267 268 267 267 266 265 265 265 264 264 263 263 263 262 262 261 260 260 260 258 257 257 256 255 255 255 255 254 253 252 253 252 252 251
268 267 267 267 267 267 267 267 266 267 267 266 265 265 265 264 264 263 262 262 261 261 260 259 259 260 258 257 256 255 254 254 254 254 253 253 252 251 251 251 251 250
267 266 266 266 266 265 266 266 266 266 266 265 264 264 264 263 263 262 261 261 260 260 260 258 258 258 257 257 256 256 254 254 254 254 254 253 252 252 251 250 250 250
266 265 265 265 265 265 265 266 266 265 265 264 264 264 263 263 262 261 260 260 259 259 258 257 257 257 257 257 257 256 255 255 254 254 254 254 253 253 251 250 251 250
265 265 265 265 265 265 265 265 264 264 264 264 263 262 262 261 260 260 259 259 259 258 257 256 257 257 257 257 256 255 255 255 254 254 254 254 254 254 253 252 251 251
265 264 264 264 264 264 264 264 263 263 263 263 262 260 260 259 259 259 259 259 258 258 258 257 256 256 256 256 255 255 254 254 254 254 254 254 254 254 253 252 252 251
264 264 264 264 264 264 263 263 262 261 261 261 261 261 260 259 259 259 259 258 258 257 257 257 257 256 256 255 255 254 253 253 253 254 254 254 254 254 254 253 252 252
264 264 263 264 264 263 262 262 261 261 261 261 261 261 260 260 259 259 258 257 257 257 257 256 256 256 255 255 254 253 253 252 253 253 254 254 254 254 254 253 253 252
264 263 263 263 263 262 261 261 261 261 261 261 261 261 260 260 259 259 257 256 256 256 256 256 256 255 255 254 253 252 252 252 253 253 253 253 253 253 254 253 253 252
263 263 262 262 261 261 261 261 261 260 260 260 260 260 260 259 258 258 257 257 256 256 256 255 255 255 256 256 256 254 252 252 252 252 252 253 253 254 255 254 253 253
263 262 262 261 261 261 260 260 261 260 259 260 260 260 259 258 258 257 257 257 257 256 255 255 255 255 256 260 263 263 256 254 254 255 257 257 256 256 256 257 257 256
262 262 261 261 261 260 260 260 260 259 259 260 259 259 258 258 257 257 257 256 255 255 255 255 255 256 260 263 265 266 265 260 257 257 257 258 259 259 260 260 260 260
262 261 261 260 260 260 260 260 259 259 259 259 259 259 258 257 257 257 256 256 255 255 254 255 255 256 260 264 265 267 267 266 264 262 260 260 260 260 260 261 261 261
262 261 260 260 260 260 259 259 259 259 259 259 259 258 257 257 257 256 257 255 255 254 254 255 254 255 259 263 265 266 267 267 265 265 264 264 263 263 263 262 262 262
262 261 260 260 260 259 259 258 258 259 259 259 258 258 257 256 257 256 256 255 254 254 253 254 254 256 259 263 265 266 267 267 265 265 264 264 264 264 263 263 263 263
261 260 260 259 259 259 258 258 258 259 258 258 258 258 258 257 257 256 255 255 254 253 253 253 255 257 260 263 265 266 267 264 263 263 262 262 262 262 262 262 261 261
261 260 260 259 259 258 258 258 258 258 258 258 257 257 257 256 256 256 255 255 254 254 253 254 254 256 258 261 263 265 265 262 262 261 261 260 260 260 260 260 259 259
261 261 260 259 258 258 258 258 259 259 258 258 257 257 256 256 256 256 256 255 255 254 254 254 255 256 257 259 263 264 263 261 260 259 259 259 259 259 259 258 258 259
261 261 260 259 259 259 258 258 259 259 259 258 257 257 257 257 256 256 256 256 256 256 256 255 255 256 257 257 261 263 263 260 259 258 257 257 257 256 257 257 257 258
261 261 260 260 259 259 259 259 259 258 258 257 257 257 256 256 256 256 255 256 256 255 255 255 255 255 256 257 259 262 264 261 260 258 257 257 257 257 257 256 256 255
Wind_Speed
10 9 10 10 7 7 7 9 8 9 7 7 7 7 7 6 8 7 7 6 6 6 6 4 4 4 4 3 3 3 3 3 3 3 3 3 3 4 4 4 4 4
11 10 9 8 8 7 7 6 6 7 7 7 6 7 6 7 8 7 7 7 7 6 6 5 5 4 3 3 4 4 3 3 4 3 4 4 3 4 4 4 3 3
10 10 10 10 10 10 10 9 6 6 6 6 7 6 7 7 8 7 7 7 7 7 7 5 5 4 5 4 4 4 3 3 4 3 3 4 3 3 3 3 2 3
10 11 10 10 9 10 9 9 8 8 6 6 7 6 6 6 7 8 7 7 7 6 6 6 6 5 5 4 4 4 4 3 3 3 3 3 3 3 3 2 2 2
11 10 9 8 8 8 9 10 9 8 7 6 7 7 7 8 7 7 7 7 7 7 6 7 7 6 6 4 4 4 3 3 3 3 4 4 3 3 3 3 3 4
8 9 8 9 9 9 9 10 8 7 7 8 8 7 7 8 7 7 8 7 7 7 7 6 6 5 4 4 4 4 4 3 3 4 4 4 3 2 3 3 3 4
10 9 10 8 9 9 9 8 8 9 9 7 8 8 8 9 8 10 9 8 8 7 6 6 6 5 5 4 4 4 4 4 4 4 4 4 3 4 3 4 4 4
10 8 9 8 9 10 9 9 8 9 9 9 10 8 9 9 9 8 7 10 7 6 6 6 5 5 5 4 5 5 4 4 5 5 4 4 3 4 4 4 4 5
9 8 8 9 10 8 9 9 8 9 9 10 9 8 8 8 9 9 9 9 7 7 7 6 7 5 5 5 5 5 5 5 5 5 4 4 5 6 5 4 4 5
10 8 9 10 11 9 11 9 9 8 8 9 9 10 9 7 8 8 8 8 8 8 7 6 6 5 5 5 5 5 5 6 5 5 5 5 6 5 5 5 6 5
10 10 10 10 10 9 10 9 8 8 8 9 8 9 9 8 7 7 8 9 9 8 8 7 7 6 6 5 5 5 5 5 5 4 5 5 6 6 5 6 6 7
11 10 11 11 10 9 9 9 9 8 8 7 8 9 8 8 9 8 11 11 8 7 7 7 6 7 7 6 6 5 5 5 4 4 5 6 6 6 6 6 7 7
11 11 11 10 10 9 8 8 9 9 9 9 8 9 9 9 9 11 9 8 7 6 7 7 7 8 7 7 6 5 5 5 5 5 6 4 5 7 6 6 7 7
12 10 10 10 9 8 8 8 8 9 9 8 8 11 9 7 8 9 9 7 6 7 6 6 7 7 7 6 6 5 5 5 5 6 6 5 5 5 7 7 7 7
9 9 8 8 8 8 8 9 9 8 9 8 10 11 9 9 9 8 9 6 5 6 5 6 5 7 6 6 6 6 5 6 6 6 6 7 6 7 7 8 7 7
10 9 9 9 9 10 9 9 9 9 9 9 9 9 9 8 9 6 9 10 7 6 5 4 5 5 7 10 10 7 6 6 6 6 6 7 7 6 7 7 8 8
9 10 9 11 10 9 9 9 9 9 9 9 8 7 7 6 5 7 8 6 7 8 8 6 6 5 10 13 15 16 10 8 8 8 9 8 8 7 7 8 7 8
11 11 11 11 10 10 10 10 9 9 10 10 10 8 6 6 6 6 6 6 7 7 7 6 6 8 13 15 16 16 14 9 8 7 7 7 8 8 8 8 8 7
10 11 11 11 11 10 10 9 10 10 9 9 9 8 7 7 7 6 7 8 8 9 8 7 7 8 13 15 15 15 16 13 6 8 7 7 8 8 10 10 8 7
11 11 11 11 10 10 9 10 10 11 10 8 6 7 7 7 6 7 6 9 9 9 7 6 7 8 13 15 15 15 15 13 8 8 8 8 8 8 7 8 9 9
12 11 11 11 10 10 10 10 11 10 10 9 7 8 8 8 7 8 8 8 8 7 7 7 7 10 13 15 15 15 15 13 7 7 7 8 9 9 9 9 9 8
12 12 11 11 11 10 11 11 11 11 10 8 7 5 5 5 4 7 8 8 8 7 7 8 7 11 13 15 15 14 15 8 6 6 7 7 8 8 9 9 8 8
12 13 12 12 12 12 12 12 11 9 8 6 7 7 7 7 7 8 7 7 7 7 8 8 7 9 12 14 14 15 11 5 5 5 6 7 8 7 8 9 9 8
13 14 14 13 12 13 13 11 10 6 7 7 8 8 8 8 7 7 6 7 8 8 8 8 7 7 12 12 15 15 12 7 5 6 7 8 8 8 8 9 10 13
12 12 12 12 13 13 12 12 11 10 8 7 6 7 7 6 6 6 6 5 6 7 8 9 7 6 10 12 15 15 11 5 5 5 7 8 7 8 7 8 9 9
11 12 12 12 13 11 10 11 9 8 8 8 8 6 6 5 6 6 6 5 5 6 6 7 7 7 7 12 14 16 16 8 5 7 8 9 8 8 8 8 7 5
Wind_Direction
190 188 186 185 176 166 164 166 169 170 170 163 163 167 166 158 150 150 142 140 141 142 147 145 148 159 164 170 176 154 159 180 173 176 178 173 186 184 191 191 191 186
193 187 187 185 184 179 178 153 156 162 157 157 158 156 150 147 151 149 147 145 147 151 153 158 166 170 163 163 182 175 185 182 187 188 178 189 197 189 204 197 196 191
191 188 186 186 184 183 177 172 153 148 146 148 144 145 147 148 151 147 147 148 153 158 161 160 163 169 177 181 178 184 188 193 192 204 175 205 203 193 205 195 194 196
195 192 188 187 183 178 170 166 169 139 138 147 159 145 140 145 145 146 147 152 158 161 162 166 171 170 171 176 173 189 194 196 199 191 195 208 206 194 205 197 198 211
192 191 188 183 181 173 169 173 166 158 151 144 127 140 145 148 142 146 151 157 159 163 167 174 177 177 174 174 177 186 195 193 203 193 199 212 214 201 214 195 210 217
195 188 183 178 176 172 177 179 164 143 148 149 154 146 152 147 146 149 155 160 162 167 172 174 175 178 176 178 189 188 192 197 200 193 201 210 219 223 207 213 212 222
188 182 181 172 169 173 175 173 166 160 153 151 148 164 151 160 152 144 159 166 165 172 171 166 173 184 179 181 188 197 194 195 206 202 211 221 205 234 228 217 220 224
188 184 179 172 171 170 173 172 169 171 166 158 169 168 166 165 167 165 166 157 168 174 167 176 183 185 189 186 192 195 202 196 201 205 211 220 207 232 227 225 218 223
183 182 173 175 171 173 175 174 173 169 165 166 168 163 167 165 166 152 148 146 159 172 175 182 187 192 187 189 198 198 205 206 203 203 210 215 219 230 224 216 221 223
186 181 178 178 179 179 178 176 173 170 166 167 163 127 153 156 139 157 157 166 175 177 184 185 188 191 195 197 204 202 207 210 204 207 210 217 224 227 221 211 222 229
189 184 185 185 185 182 183 173 170 165 168 166 158 163 159 156 157 162 168 163 178 185 182 189 192 190 194 201 210 209 211 214 211 209 219 223 225 226 221 217 223 225
191 188 191 188 185 183 182 172 166 166 166 162 163 163 164 168 168 171 161 164 182 187 189 190 192 190 199 204 209 207 209 213 215 220 226 228 227 226 223 220 225 228
192 192 189 188 185 181 175 169 167 166 165 169 170 167 169 167 166 154 172 175 188 184 192 192 182 178 184 199 209 206 212 214 222 228 233 215 221 226 227 225 226 228
194 188 186 187 182 174 173 171 168 168 172 169 169 165 167 168 171 173 160 173 187 186 190 181 181 188 188 206 207 207 208 221 220 230 238 234 223 220 220 231 227 227
186 184 182 180 176 170 169 172 173 173 173 166 156 157 162 161 167 166 156 170 172 180 184 189 194 195 199 202 205 213 209 224 225 229 236 244 238 233 233 232 230 228
183 179 179 175 173 177 177 175 175 174 171 169 165 166 164 159 152 167 160 167 179 188 191 186 202 203 208 207 209 204 209 217 225 229 231 241 241 241 240 230 227 225
179 182 174 182 182 177 177 176 175 172 172 176 175 167 168 163 160 170 180 183 189 180 187 203 212 208 210 222 229 223 205 209 215 231 236 231 223 224 237 248 230 219
184 179 179 184 177 181 178 179 173 174 178 175 164 170 169 159 173 187 179 188 170 197 213 215 216 208 220 232 236 240 231 207 188 204 210 217 223 235 246 250 251 240
181 181 184 182 184 179 177 177 178 179 180 167 180 164 143 172 190 180 195 176 186 192 215 219 223 209 227 236 242 244 246 246 214 204 211 207 220 220 239 251 253 251
182 182 184 185 179 178 176 180 180 187 182 160 150 155 175 182 183 193 191 186 194 210 220 222 225 207 225 239 244 248 250 250 240 238 236 245 243 242 240 242 247 255
183 182 184 180 179 179 179 183 186 186 177 172 172 179 180 181 183 186 201 202 206 207 217 228 225 212 227 239 246 250 252 254 247 242 238 241 238 238 241 242 244 245
181 183 182 178 178 179 181 187 189 189 170 169 165 175 174 161 191 168 201 204 203 202 213 234 229 217 230 240 245 250 253 256 250 248 249 252 255 259 262 263 263 262
183 182 183 181 181 180 188 190 188 182 171 148 165 179 180 187 181 197 203 201 200 201 210 232 235 219 223 238 247 252 256 255 247 249 248 248 250 253 257 259 258 255
186 185 184 184 182 188 190 192 191 175 170 163 175 172 189 194 194 200 204 202 203 207 207 222 237 217 214 233 248 252 253 243 233 235 241 245 250 246 250 252 250 248
186 186 186 184 186 191 188 188 188 181 171 159 173 181 192 180 183 196 203 203 202 210 208 217 237 229 217 226 246 254 256 243 243 245 252 252 252 258 255 255 256 250
185 186 187 185 189 188 187 191 178 165 160 166 184 181 180 179 182 193 201 208 199 202 217 220 230 238 221 228 241 254 255 248 218 228 238 243 240 242 255 252 243 238